All
Kyogle Hospital Airport YXKO Weather
There is no TAF data available at YXKO. Showing TAF data for YLIS (21 mi SE).
LSY Terminal Area Forecast (no data for YXKO)
| Here is the undecoded forecast: 2026/05/05 11:04 YLIS 051104Z 0511/0520 20005KT 9999 -SHRA BKN014 FM051400 23005KT 8000 -DZ SCT007 BKN010 INTER 0511/0514 3000 SHRA BKN007 TEMPO 0514/0520 3000 DZ BKN005 RMK T 20 18 17 17 Q 1018 1017 1017 1018 |
There is no METAR data available at YXKO. Showing METAR data for YCAS (18 mi S).
Recent CSI METAR history (no data for YXKO)
| Date | Time (AEST) | Flight Rules | Wind Dir. | Speed | Type | Height AGL (ft) | Visibility | Temp (°C) | Temp (°F) | Dew Point (°C) | Dew Point (°F) | Rel. Humid. | Pressure | Density Altitude | Remarks |
|---|---|---|---|---|---|---|---|---|---|---|---|---|---|---|---|
| 05-May | 21:00 | n/a | 190° | 5 kt | Missing | 21° | 69° | 19° | 66° | 88% | 1019 mb | 634 ft | |||
| 05-May | 20:00 | n/a | 220° | 6 kt | Missing | 21° | 69° | 19° | 66° | 88% | 1018 mb | 663 ft | |||
| 05-May | 19:00 | n/a | 170° | 5 kt | Missing | 21° | 69° | 19° | 66° | 88% | 1018 mb | 663 ft | |||
| 05-May | 18:00 | n/a | 140° | 6 kt | Missing | 22° | 71° | 18° | 64° | 78% | 1017 mb | 813 ft | |||
| 05-May | 17:00 | n/a | 130° | 3 kt | Missing | 23° | 73° | 18° | 64° | 73% | 1015 mb | 992 ft | |||
| 05-May | 16:00 | n/a | 120° | 2 kt | Missing | 26° | 78° | 18° | 64° | 61% | 1015 mb | 1,352 ft | |||
| 05-May | 15:00 | n/a | 70° | 4 kt | Missing | 27° | 80° | 17° | 62° | 54% | 1014 mb | 1,502 ft | |||
| 05-May | 14:00 | n/a | 260° | 2 kt | Missing | 27° | 80° | 17° | 62° | 54% | 1014 mb | 1,502 ft | |||
| 05-May | 13:00 | n/a | 340° | 1 kt | Missing | 26° | 78° | 17° | 62° | 58% | 1015 mb | 1,352 ft | |||
| 05-May | 12:00 | n/a | 350° | 3 kt | Missing | 25° | 77° | 18° | 64° | 65% | 1016 mb | 1,203 ft | |||
| 05-May | 11:00 | n/a | 290° | 3 kt | Missing | 25° | 77° | 19° | 66° | 69% | 1017 mb | 1,173 ft | |||
| 05-May | 10:00 | n/a | 300° | 4 kt | Missing | 22° | 71° | 19° | 66° | 83% | 1018 mb | 783 ft | |||
| 05-May | 09:00 | n/a | 310° | 4 kt | Missing | 19° | 66° | 19° | 66° | 100% | 1018 mb | 423 ft | |||
| 05-May | 08:00 | n/a | 350° | 4 kt | Missing | 19° | 66° | 18° | 64° | 94% | 1018 mb | 423 ft | |||
| 05-May | 07:00 | n/a | 310° | 4 kt | Missing | 19° | 66° | 19° | 66° | 100% | 1017 mb | 453 ft | |||
| 05-May | 06:00 | n/a | 290° | 2 kt | Missing | 19° | 66° | 18° | 64° | 94% | 1017 mb | 453 ft | |||
| 05-May | 05:00 | n/a | 290° | 3 kt | Missing | 19° | 66° | 19° | 66° | 100% | 1017 mb | 453 ft | |||
| 05-May | 04:00 | n/a | 320° | 5 kt | Missing | 19° | 66° | 19° | 66° | 100% | 1016 mb | 483 ft | |||
| 05-May | 03:00 | n/a | 50° | 4 kt | Missing | 19° | 66° | 19° | 66° | 100% | 1016 mb | 483 ft | |||
| 05-May | 02:00 | n/a | 130° | 1 kt | Missing | 18° | 64° | 18° | 64° | 100% | 1017 mb | 333 ft | |||
| 05-May | 01:00 | n/a | Calm | Missing | 18° | 64° | 18° | 64° | 100% | 1017 mb | 333 ft | ||||
| 05-May | 00:00 | n/a | 130° | 1 kt | Missing | 16° | 60° | 16° | 60° | 100% | 1017 mb | 93 ft | |||
| 04-May | 23:00 | n/a | 130° | 4 kt | Missing | 17° | 62° | 17° | 62° | 100% | 1018 mb | 183 ft | |||
| 04-May | 22:00 | n/a | Calm | Missing | 17° | 62° | 17° | 62° | 100% | 1018 mb | 183 ft |
Login
| Your browser is unsupported. upgrade your browser |
